[[{"header":{"parameterUnit":"m.s-1","parameterCategory":1,"la1":30.2991,"la2":30.254,"lo1":-89.0895,"lo2":-89.0444,"dy":0.0017,"dx":0.0017,"nx":28,"ny":28,"refTime":"2026-02-16T09:00:00:Z","depth":0,"parameterNumber":2,"parameterNumberName":"U-component_of_WINDS"},"data":[0,0,0,0,0,0,0,0,0,0,0,0,0,0,0,0,0,0,0,0,0,0,0,0,0,0,0,0,0,0,0,0,0,0,0,0,0,0,0,0,0,0,0,0,0,0,0,0,0,0,0,0,0,0,0,0,0,0,-1.0986,-1.0987,0,-1.1013,-1.1013,-1.1013,-1.1048,-1.1049,-1.105,-1.105,-1.1078,-1.1079,-1.1079,0,0,0,0,0,0,0,0,0,0,0,0,0,-1.0967,-1.0967,-1.0986,-1.0987,-1.0987,-1.1013,-1.1013,-1.1014,-1.1048,-1.1049,-1.105,-1.105,-1.1078,-1.1079,-1.1079,0,0,0,0,0,0,0,0,0,0,0,0,0,-1.0982,-1.0967,-1.0986,-1.1007,-1.101,-1.1013,-1.1013,-1.1014,-1.1048,-1.1049,-1.105,-1.1051,-1.1078,-1.1079,-1.1079,-1.1064,0,0,-1.108,-1.108,0,0,0,0,0,0,0,0,-1.0981,-1.0983,-1.1004,-1.1006,-1.1008,-1.1028,-1.1017,-1.103,-1.1048,-1.1034,-1.105,-1.1051,-1.1061,-1.1063,-1.1066,-1.1065,-1.1066,-1.108,-1.108,-1.108,-1.108,0,0,0,0,0,0,0,-1.098,-1.0982,-1.0997,-1.1004,-1.1007,-1.1016,-1.1019,-1.1019,-1.1042,-1.1035,-1.1038,-1.104,-1.1063,-1.1066,-1.1067,-1.1067,-1.108,-1.108,-1.108,-1.1081,-1.1053,-1.1052,0,0,0,0,0,0,-1.0976,-1.0981,-1.0996,-1.0998,-1.0997,-1.1016,-1.1019,-1.1021,-1.1042,-1.1046,-1.1039,-1.1042,-1.1065,-1.1067,-1.1068,-1.105,-1.108,-1.1081,-1.1081,-1.1054,-1.1053,-1.1052,0,0,0,0,0,0,-1.0975,-1.0977,-1.0995,-1.099,-1.0993,-1.1015,-1.1017,-1.1021,-1.1024,-1.1046,-1.105,-1.1038,-1.1065,-1.1068,-1.1064,-1.1052,-1.1081,-1.1081,-1.1055,-1.1054,-1.1053,-1.1015,0,0,0,0,0,0,-1.0975,-1.0977,-1.0971,-1.099,-1.0993,-1.099,-1.1016,-1.1021,-1.1024,-1.1028,-1.1046,-1.105,-1.1066,-1.1063,-1.1064,-1.1053,-1.1081,-1.1056,-1.1055,-1.1053,-1.1018,-1.1013,-1.1009,0,0,0,0,0,-1.0974,-1.096,-1.097,-1.0972,-1.0986,-1.0989,-1.0991,-1.101,-1.1023,-1.1018,-1.1031,-1.1049,-1.1053,-1.1063,-1.1064,-1.1052,-1.1057,-1.1055,-1.1053,-1.102,-1.1014,-1.1009,0,0,0,0,0,0,-1.094,-1.0963,-1.0975,-1.0966,-1.0975,-1.0995,-1.0989,-1.1004,-1.101,-1.1013,-1.1037,-1.1041,-1.1034,-1.1043,-1.1053,-1.1038,-1.1058,-1.1056,-1.1032,-1.1026,-1.1022,-1.1019,-1.1082,0,0,0,0,0,-1.0931,-1.0931,-1.0952,-1.0942,-1.0946,-1.0967,-1.0969,-1.0983,-1.0993,-1.0998,-1.1011,-1.1021,-1.1025,-1.1026,-1.1031,-1.102,-1.1023,-1.1012,-1.1008,-1.1004,-1.1001,-1.0995,-1.0989,-1.1045,-1.1045,-1.1045,0,0,-1.0913,-1.0926,-1.0925,-1.0936,-1.0945,-1.0944,-1.097,-1.0969,-1.0968,-1.0998,-1.0994,-1.1005,-1.1018,-1.1009,-1.1007,-1.1017,-1.0987,-1.1001,-1.0998,-1.0998,-1.0992,-1.0987,-1.0982,-1.1044,-1.1044,-1.1044,0,0,-1.088,-1.0891,-1.0883,-1.0891,-1.0904,-1.0918,-1.0916,-1.0933,-1.0941,-1.0938,-1.0959,-1.096,-1.0966,-1.0974,-1.0978,-1.0948,-1.0963,-1.0949,-1.0924,-1.0917,-1.0913,-1.0909,-1.0896,-1.0892,-1.0947,-1.0947,-1.0946,0,-1.0857,-1.0857,-1.0878,-1.0874,-1.0878,-1.0904,-1.0897,-1.0904,-1.0917,-1.0919,-1.0931,-1.0938,-1.0949,-1.0942,-1.0934,-1.0938,-1.0936,-1.0946,-1.0912,-1.0908,-1.0905,-1.0893,-1.0889,-1.0944,-1.0945,-1.0945,-1.0945,0,-1.0826,-1.0826,-1.0819,-1.083,-1.0833,-1.0828,-1.0848,-1.0849,-1.0862,-1.0874,-1.0871,-1.0884,-1.0891,-1.0891,-1.0905,-1.0886,-1.0892,-1.0908,-1.0927,-1.0897,-1.0886,-1.0882,-1.0942,-1.0942,-1.0943,-1.0943,0,0,-1.0772,-1.0795,-1.0791,-1.0796,-1.0812,-1.0812,-1.0808,-1.0814,-1.0814,-1.0823,-1.0819,-1.0823,-1.0837,-1.0842,-1.0857,-1.0851,-1.0824,-1.0867,-1.0868,-1.0857,-1.0802,-1.0789,-1.0784,-1.0835,-1.0835,-1.0834,-1.0801,0,-1.0741,-1.0734,-1.0752,-1.0741,-1.074,-1.0765,-1.0761,-1.077,-1.0782,-1.0783,-1.0796,-1.0797,-1.0817,-1.082,-1.0815,-1.0828,-1.0813,-1.0831,-1.0831,-1.0831,-1.0825,-1.0778,-1.0765,-1.0732,-1.0797,-1.0796,-1.0796,0,-1.0704,-1.0709,-1.0697,-1.0712,-1.0713,-1.0709,-1.0715,-1.0717,-1.0727,-1.0736,-1.0741,-1.0758,-1.0755,-1.0775,-1.077,-1.0782,-1.0784,-1.079,-1.0789,-1.0789,-1.081,-1.0775,-1.0723,-1.0717,-1.079,-1.079,-1.079,0,-1.0663,-1.0668,-1.0661,-1.0665,-1.0683,-1.0679,-1.0687,-1.0698,-1.07,-1.0707,-1.0708,-1.0714,-1.0717,-1.0721,-1.0739,-1.0752,-1.0731,-1.0753,-1.0737,-1.0736,-1.073,-1.073,-1.0676,-1.0734,-1.0734,-1.0734,-1.0734,0,-1.0625,-1.0616,-1.0642,-1.0638,-1.0629,-1.065,-1.0641,-1.0651,-1.0661,-1.0659,-1.0681,-1.0679,-1.0703,-1.0703,-1.0718,-1.071,-1.0712,-1.0718,-1.0722,-1.0715,-1.0714,-1.0715,-1.0717,-1.0733,-1.0733,-1.0734,-1.0734,0,-1.0577,-1.0595,-1.0588,-1.0606,-1.061,-1.0602,-1.0617,-1.0614,-1.0627,-1.0623,-1.0624,-1.0644,-1.0645,-1.0664,-1.0669,-1.0679,-1.0665,-1.0674,-1.0661,-1.0663,-1.0645,-1.0646,-1.0588,-1.0581,-1.0646,-1.0645,-1.0644,0,-1.0551,-1.0545,-1.0561,-1.0561,-1.0567,-1.0567,-1.0569,-1.059,-1.0591,-1.0602,-1.0597,-1.06,-1.0603,-1.0604,-1.0619,-1.0623,-1.0631,-1.061,-1.0632,-1.0624,-1.0628,-1.0627,-1.0626,-1.0605,-1.0605,-1.0604,-1.0603,0,-1.0503,-1.0511,-1.0513,-1.0517,-1.0519,-1.0524,-1.053,-1.0528,-1.0551,-1.0552,-1.0552,-1.0555,-1.056,-1.0562,-1.0568,-1.0576,-1.0593,-1.0597,-1.0593,-1.0585,-1.0577,-1.0579,-1.0647,-1.0598,-1.0598,-1.0599,-1.0599,-1.0599,-1.0464,-1.0459,-1.0469,-1.047,-1.0477,-1.0481,-1.0478,-1.049,-1.0491,-1.0496,-1.0509,-1.0508,-1.0518,-1.0528,-1.0535,-1.0533,-1.0544,-1.0539,-1.0537,-1.0535,-1.0531,-1.0578,-1.0535,-1.0535,-1.0536,-1.0536,-1.0536,0,-1.0415,-1.0422,-1.0423,-1.043,-1.0431,-1.0447,-1.0454,-1.0453,-1.0451,-1.0459,-1.0462,-1.0462,-1.0464,-1.0479,-1.0482,-1.0478,-1.0486,-1.0478,-1.0478,-1.0479,-1.0522,-1.0524,-1.0472,-1.0472,-1.0472,-1.0472,-1.0472,-1.0472,-1.0389,-1.0381,-1.039,-1.0385,-1.0393,-1.0391,-1.0394,-1.0398,-1.0404,-1.0403,-1.0405,-1.0415,-1.0425,-1.0429,-1.0431,-1.0436,-1.0435,-1.0424,-1.0431,-1.047,-1.0476,-1.0482,-1.0484,-1.0424,-1.0424,-1.0388,-1.0387,-1.0387]},{"header":{"parameterUnit":"m.s-1","parameterCategory":1,"la1":30.2991,"la2":30.254,"lo1":-89.0895,"lo2":-89.0444,"dy":0.0017,"dx":0.0017,"nx":28,"ny":28,"refTime":"2026-02-16T09:00:00:Z","depth":0,"parameterNumber":3,"parameterNumberName":"V-component_of_WINDS"},"data":[0,0,0,0,0,0,0,0,0,0,0,0,0,0,0,0,0,0,0,0,0,0,0,0,0,0,0,0,0,0,0,0,0,0,0,0,0,0,0,0,0,0,0,0,0,0,0,0,0,0,0,0,0,0,0,0,0,0,1.9954,1.9955,0,1.9993,1.9993,1.9994,2.0047,2.0048,2.0049,2.005,2.0088,2.0088,2.0089,0,0,0,0,0,0,0,0,0,0,0,0,0,1.9926,1.9927,1.9954,1.9955,1.9955,1.9993,1.9993,1.9994,2.0047,2.0048,2.0049,2.005,2.0088,2.0088,2.0089,0,0,0,0,0,0,0,0,0,0,0,0,0,1.9949,1.9927,1.9954,1.9986,1.999,1.9993,1.9993,1.9994,2.0047,2.0048,2.005,2.0051,2.0088,2.0088,2.0089,2.0063,0,0,2.0089,2.009,0,0,0,0,0,0,0,0,1.9948,1.995,1.9981,1.9984,1.9988,2.0017,1.9998,2.0017,2.0046,2.0025,2.005,2.0051,2.0063,2.0066,2.007,2.0065,2.0067,2.0089,2.009,2.009,2.009,0,0,0,0,0,0,0,1.9946,1.9949,1.997,1.9982,1.9986,1.9999,2.0003,2.0002,2.0036,2.0027,2.0031,2.0035,2.0065,2.0069,2.0071,2.0067,2.0089,2.009,2.009,2.009,2.0044,2.0043,0,0,0,0,0,0,1.994,1.9947,1.9968,1.9971,1.9971,1.9998,2.0003,2.0006,2.0036,2.0042,2.0034,2.0037,2.0068,2.0071,2.0073,2.0046,2.009,2.009,2.009,2.0046,2.0044,2.0042,0,0,0,0,0,0,1.9939,1.9941,1.9967,1.996,1.9964,1.9997,2.0,2.0006,2.001,2.0041,2.0048,2.0032,2.007,2.0072,2.0065,2.0048,2.009,2.009,2.0047,2.0045,2.0043,1.999,0,0,0,0,0,0,1.9938,1.994,1.9931,1.9959,1.9964,1.9959,1.9999,2.0006,2.0011,2.0016,2.0041,2.0046,2.0071,2.0065,2.0066,2.0049,2.0091,2.0049,2.0046,2.0044,1.9994,1.9987,1.9981,0,0,0,0,0,1.9937,1.9914,1.993,1.9933,1.9953,1.9958,1.996,1.9989,2.0009,2.0,2.002,2.0046,2.0049,2.0064,2.0065,2.0048,2.005,2.0047,2.0044,1.9997,1.9988,1.9981,0,0,0,0,0,0,1.9883,1.9919,1.9937,1.9923,1.9937,1.9967,1.9956,1.9979,1.9987,1.9992,2.0027,2.0032,2.0021,2.0034,2.0049,2.0025,2.0054,2.0051,2.0017,2.0009,2.0003,2.0,2.0091,0,0,0,0,0,1.9869,1.987,1.9901,1.9886,1.9892,1.9923,1.9926,1.9947,1.9962,1.9968,1.9988,2.0002,2.0006,2.0009,2.0014,1.9996,2.0003,1.9985,1.9978,1.9973,1.997,1.9962,1.9955,2.0032,2.0032,2.0032,0,0,1.9841,1.9861,1.9859,1.9876,1.9889,1.9889,1.9927,1.9925,1.9926,1.9968,1.9963,1.9978,1.9996,1.9983,1.9979,1.9994,1.995,1.9969,1.9964,1.9964,1.9958,1.9951,1.9944,2.003,2.003,2.0031,0,0,1.9791,1.9805,1.9795,1.9807,1.9827,1.9848,1.9845,1.9872,1.9883,1.9879,1.9911,1.9912,1.9918,1.993,1.9937,1.9892,1.9916,1.9892,1.9858,1.985,1.9844,1.9839,1.9823,1.9817,1.9889,1.9889,1.9889,0,1.9754,1.9755,1.9786,1.9783,1.9789,1.9828,1.9818,1.9828,1.9849,1.9852,1.9869,1.9879,1.9893,1.9885,1.9874,1.9878,1.9876,1.989,1.9842,1.9837,1.9833,1.9818,1.9812,1.9886,1.9887,1.9887,1.9887,0,1.9709,1.9709,1.9698,1.9717,1.9723,1.9715,1.9746,1.9747,1.9768,1.9787,1.9782,1.9801,1.9812,1.9811,1.9831,1.9805,1.9814,1.9836,1.9865,1.9822,1.9809,1.9804,1.9882,1.9883,1.9884,1.9885,0,0,1.9625,1.9662,1.9658,1.9667,1.9692,1.9693,1.9688,1.9699,1.97,1.9712,1.9709,1.9714,1.9735,1.9743,1.9764,1.9757,1.972,1.978,1.9781,1.9769,1.9694,1.9678,1.9671,1.9736,1.9736,1.9735,1.9693,0,1.958,1.9573,1.9602,1.9588,1.9589,1.9626,1.9621,1.9636,1.9654,1.9657,1.9676,1.968,1.9706,1.9711,1.9706,1.9726,1.9706,1.9729,1.9734,1.9734,1.9729,1.9664,1.9647,1.9606,1.9688,1.9687,1.9686,0,1.9526,1.9537,1.9523,1.9549,1.9551,1.9546,1.9559,1.9562,1.9579,1.9593,1.9601,1.9626,1.9623,1.9651,1.9647,1.9663,1.9666,1.9676,1.9676,1.9677,1.9708,1.9665,1.9594,1.9588,1.9678,1.9679,1.968,0,1.9468,1.9478,1.9472,1.9479,1.9509,1.9505,1.9517,1.9536,1.9541,1.9552,1.9556,1.9566,1.9571,1.9579,1.9606,1.9623,1.9599,1.9629,1.9611,1.961,1.9604,1.9604,1.9534,1.9605,1.9605,1.9606,1.9606,0,1.9415,1.9405,1.9446,1.9442,1.9432,1.9465,1.9454,1.947,1.9487,1.9487,1.9519,1.9518,1.9554,1.9557,1.9578,1.9572,1.9574,1.9585,1.9591,1.9583,1.9581,1.9586,1.959,1.9604,1.9604,1.9605,1.9605,0,1.9348,1.9375,1.9371,1.94,1.9407,1.9398,1.9423,1.9421,1.944,1.944,1.9441,1.9472,1.9477,1.9505,1.9517,1.9531,1.9518,1.9529,1.9512,1.9516,1.9496,1.9498,1.9427,1.9419,1.9495,1.9494,1.9493,0,1.9313,1.9306,1.9335,1.9337,1.9348,1.9351,1.9357,1.9388,1.9393,1.9412,1.9408,1.9416,1.9424,1.9431,1.9454,1.9463,1.9475,1.945,1.9477,1.9469,1.9476,1.9476,1.9476,1.9444,1.9443,1.9442,1.9441,0,1.9248,1.9262,1.9268,1.9279,1.9285,1.9295,1.9307,1.9307,1.9343,1.9346,1.9352,1.9358,1.937,1.9378,1.9391,1.9404,1.9429,1.9433,1.9429,1.9421,1.9411,1.9417,1.9497,1.9434,1.9435,1.9435,1.9436,1.9436,1.9197,1.9193,1.9212,1.9219,1.9231,1.9242,1.9241,1.9261,1.9266,1.9279,1.9297,1.9301,1.9319,1.934,1.935,1.9354,1.9368,1.9362,1.9361,1.9359,1.9355,1.941,1.9356,1.9356,1.9357,1.9357,1.9357,0,1.9134,1.9148,1.9154,1.917,1.9175,1.9198,1.9212,1.9215,1.9218,1.9233,1.924,1.9247,1.9255,1.9279,1.9289,1.9287,1.9299,1.9289,1.929,1.9293,1.9342,1.9344,1.928,1.928,1.928,1.928,1.928,1.928,1.9102,1.9097,1.9113,1.9115,1.9129,1.9133,1.914,1.915,1.9162,1.9169,1.9175,1.9191,1.9209,1.9221,1.9229,1.9236,1.9239,1.9225,1.9236,1.9282,1.9289,1.9296,1.9299,1.9225,1.9225,1.9186,1.9186,1.9186]}]]